Regional Weather Roundup
Issued by NWS

Home | Current Version | Previous Version | Text Only | Print | Product List | Glossary On
Versions: 1 2 3 4 5 6 7 8 9 10 11 12 13 14 15 16 17 18 19 20 21 22 23 24 25 26 27 28 29 30 31 32 33 34 35 36 37 38 39 40 41 42 43 44 45 46 47 48 49 50
000
ASUS43 KLMK 221002
RWRKY
KENTUCKY REGIONAL WEATHER ROUNDUP
NATIONAL WEATHER SERVICE LOUISVILLE KY
500 AM EST SUN JAN 22 2017

NOTE "FAIR" INDICATES FEW OR NO CLOUDS BELOW 12,000 FEET
WITH NO SIGNIFICANT WEATHER AND/OR OBSTRUCTIONS TO VISIBILITY.

KYZ001>023-026-027-061>063-070>075-221100-
WESTERN AND SOUTH CENTRAL KENTUCKY

CITY           SKY/WX    TMP DP  RH WIND       PRES   REMARKS
PADUCAH        CLOUDY    51  47  86 NE5       29.46F
HENDERSON      CLOUDY    48  45  87 SE6       29.49S
OWENSBORO      CLOUDY    52  48  86 E3        29.51S
HOPKINSVILLE   NOT AVBL
BOWLING GREEN  CLOUDY    52  48  86 NE3       29.52S
GLASGOW        NOT AVBL
$$

KYZ024-025-028>034-038-045-046-053-221100-
NORTH CENTRAL KENTUCKY

CITY           SKY/WX    TMP DP  RH WIND       PRES   REMARKS
LOUISVILLE/SDF MOCLDY    48  45  89 CALM      29.53S
LOUISVILLE/LOU PTCLDY    49  46  90 E5        29.54F
FORT KNOX      NOT AVBL
$$

KYZ035>037-039>044-047>052-055>060-089>105-221100-
NORTHEAST KENTUCKY

CITY           SKY/WX    TMP DP  RH WIND       PRES   REMARKS
LEXINGTON      PTCLDY    48  45  89 SE5       29.56R
COVINGTON      PTCLDY    48  47  96 E6        29.56F
FRANKFORT      PTCLDY    46  43  89 CALM      29.54F
$$

KYZ054-064>069-076>088-106>120-221100-
SOUTHEAST KENTUCKY

CITY           SKY/WX    TMP DP  RH WIND       PRES   REMARKS
JACKSON        MOCLDY    51  48  89 VRB5      29.57R
LONDON         FOG       44  42  93 CALM      29.56S VSB 3/4
SOMERSET       NOT AVBL
MIDDLESBORO    CLOUDY    43  43 100 CALM      29.61R FOG
MONTICELLO     CLOUDY    46  45  96 CALM      29.57S
$$





USA.gov is the U.S. government's official web portal to all federal, state and local government web resources and services.